Provincetown, Massachusetts, United States (02657)
Lat: 42.06N, Lon: 70.18W
Wx Zone: MAZ022
Local Info
Past Weather Observations for Today

NOTE: This archive is for the closest National Weather Service station to Provincetown. Information may differ from the station used for current weather conditions.

Click here for Long-term Archive

Time Weather Temperature Dewpoint Humidity Pressure Winds Precip Visibility
12:15
Partly Cloudy
21°F / -6°C 7°F / -14°C 54% 29.77 in
(1008 mb)
NW 29.9 mph
(NW 48 kph)
- 10SM
11:55
Clear
21°F / -6°C 10°F / -12°C 63% 29.77 in
(1008 mb)
NW 31.1 mph
(NW 50 kph)
- 10SM
11:35
Clear
21°F / -6°C 10°F / -12°C 63% 29.77 in
(1008 mb)
NW 32.2 mph
(NW 52 kph)
- 10SM
11:15
Clear
21°F / -6°C 10°F / -12°C 63% 29.77 in
(1008 mb)
NW 29.9 mph
(NW 48 kph)
- 10SM
10:55
Partly Cloudy
19°F / -7°C 10°F / -12°C 68% 29.77 in
(1008 mb)
NW 31.1 mph
(NW 50 kph)
- 10SM
10:35
Partly Cloudy
19°F / -7°C 10°F / -12°C 68% 29.77 in
(1008 mb)
NW 28.8 mph
(NW 46 kph)
- 10SM
10:15
Mostly Cloudy
19°F / -7°C 12°F / -11°C 73% 29.77 in
(1008 mb)
NW 27.6 mph
(NW 44 kph)
- 10SM
09:55
Mostly Cloudy
19°F / -7°C 12°F / -11°C 73% 29.74 in
(1007 mb)
NW 32.2 mph
(NW 52 kph)
- 8SM
09:35
Overcast
19°F / -7°C 12°F / -11°C 73% 29.74 in
(1007 mb)
NW 29.9 mph
(NW 48 kph)
- 6SM
09:15
Overcast
19°F / -7°C 12°F / -11°C 73% 29.74 in
(1007 mb)
NW 32.2 mph
(NW 52 kph)
- 7SM
08:55
Mostly Cloudy
19°F / -7°C 12°F / -11°C 73% 29.74 in
(1007 mb)
NW 35.7 mph
(NW 57 kph)
- 6SM
08:35
Overcast
19°F / -7°C 12°F / -11°C 73% 29.74 in
(1007 mb)
NW 33.4 mph
(NW 54 kph)
- 6SM
08:15
Overcast
19°F / -7°C 14°F / -10°C 79% 29.71 in
(1006 mb)
NW 31.1 mph
(NW 50 kph)
- 4SM
07:55
Overcast
19°F / -7°C 14°F / -10°C 79% 29.71 in
(1006 mb)
NW 36.8 mph
(NW 59 kph)
- 1 3/4SM
07:35
Overcast
19°F / -7°C 16°F / -9°C 86% 29.71 in
(1006 mb)
NW 34.5 mph
(NW 56 kph)
- 1 1/4SM
07:15
Overcast
19°F / -7°C 16°F / -9°C 86% 29.71 in
(1006 mb)
NW 34.5 mph
(NW 56 kph)
- 3/4SM
06:55
Overcast
19°F / -7°C 14°F / -10°C 79% 29.71 in
(1006 mb)
NW 32.2 mph
(NW 52 kph)
- 3/4SM
06:35
Overcast
19°F / -7°C 14°F / -10°C 79% 29.71 in
(1006 mb)
NW 33.4 mph
(NW 54 kph)
- 3/4SM
06:15
Overcast
19°F / -7°C 16°F / -9°C 86% 29.68 in
(1005 mb)
NW 31.1 mph
(NW 50 kph)
- 1/2SM
05:55
Overcast
19°F / -7°C 14°F / -10°C 79% 29.68 in
(1005 mb)
NW 32.2 mph
(NW 52 kph)
- 1/2SM
05:35
Overcast
19°F / -7°C 14°F / -10°C 79% 29.68 in
(1005 mb)
NW 31.1 mph
(NW 50 kph)
- 1/2SM
05:15
Overcast
19°F / -7°C 16°F / -9°C 86% 29.68 in
(1005 mb)
NW 33.4 mph
(NW 54 kph)
- 3/4SM
04:55
Overcast
19°F / -7°C 16°F / -9°C 86% 29.68 in
(1005 mb)
NW 28.8 mph
(NW 46 kph)
- 3/4SM
04:35
Overcast
19°F / -7°C 16°F / -9°C 86% 29.68 in
(1005 mb)
NW 32.2 mph
(NW 52 kph)
- 1SM
04:15
Overcast
19°F / -7°C 16°F / -9°C 86% 29.68 in
(1005 mb)
NW 29.9 mph
(NW 48 kph)
- 1 1/4SM
03:55
Overcast
19°F / -7°C 16°F / -9°C 86% 29.68 in
(1005 mb)
NW 25.3 mph
(NW 41 kph)
- 1 1/2SM
03:35
Overcast
21°F / -6°C 16°F / -9°C 80% 29.68 in
(1005 mb)
NW 27.6 mph
(NW 44 kph)
- 2 1/2SM
03:15
Overcast
21°F / -6°C 14°F / -10°C 74% 29.68 in
(1005 mb)
NW 27.6 mph
(NW 44 kph)
- 5SM
02:55
Overcast
21°F / -6°C 14°F / -10°C 74% 29.68 in
(1005 mb)
NW 25.3 mph
(NW 41 kph)
- 10SM
02:35
Overcast
21°F / -6°C 16°F / -9°C 80% 29.65 in
(1004 mb)
NW 28.8 mph
(NW 46 kph)
- 10SM
02:15
Overcast
21°F / -6°C 16°F / -9°C 80% 29.65 in
(1004 mb)
NW 29.9 mph
(NW 48 kph)
- 10SM
01:55
Overcast
21°F / -6°C 18°F / -8°C 86% 29.65 in
(1004 mb)
NW 28.8 mph
(NW 46 kph)
- 10SM
01:35
Overcast
23°F / -5°C 18°F / -8°C 80% 29.65 in
(1004 mb)
NW 27.6 mph
(NW 44 kph)
- 10SM
01:15
Overcast
23°F / -5°C 14°F / -10°C 68% 29.65 in
(1004 mb)
NW 29.9 mph
(NW 48 kph)
- 10SM
00:55
Overcast
23°F / -5°C 14°F / -10°C 68% 29.65 in
(1004 mb)
NW 27.6 mph
(NW 44 kph)
- 10SM
00:35
Overcast
25°F / -4°C 16°F / -9°C 69% 29.65 in
(1004 mb)
NW 31.1 mph
(NW 50 kph)
- 10SM
00:15
Overcast
25°F / -4°C 16°F / -9°C 69% 29.65 in
(1004 mb)
NW 27.6 mph
(NW 44 kph)
- 10SM
Time Weather Temperature Dewpoint Humidity Pressure Winds Precip Visibility


Weather for websites

WeatherForYou.com, LLC is not responsible for any damages or problems caused by this service. Current weather conditions are obtained from the closest station including government and personal stations which may have varying degrees of accuracy. Weather forecasts are derived from the NOAA NDFD. Like all things, this site belongs to Jesus Christ... He just trusts me to maintain it. If you have any questions or comments email webmaster@weatherforyou.com

Copyright © 2015, WeatherForYou.com LLC. All rights reserved.